Location: Shepherdstown, WV
(39.4326°N, 77.8042°W)
Time: 05:18:05
(UTC-04:00)

Explorer 11/Cluster Stage 4 - All Passes

Search period start: 31 July 2021 00:00
Search period end: 10 August 2021 00:00
Orbit: 467 x 1257 km, 28.8° (Epoch: 30 July)

Date Brightness Start Highest point End Pass type
(mag) Time Alt. Az. Time Alt. Az. Time Alt. Az.
31 Jul - 09:21:35 10° SSW 09:27:17 21° SSE 09:33:05 10° ESE daylight
31 Jul - 11:08:28 10° SW 11:15:44 35° S 11:22:43 10° ESE daylight
31 Jul - 12:57:04 10° WSW 13:04:23 37° S 13:11:00 10° ESE daylight
31 Jul - 14:46:47 10° WSW 14:52:40 24° SSW 14:57:53 10° SSE daylight
01 Aug - 09:09:56 10° SSW 09:15:51 23° SSE 09:21:58 10° ESE daylight
01 Aug - 10:57:02 10° SW 11:04:19 36° S 11:11:29 10° ESE daylight
01 Aug - 12:45:40 10° WSW 12:53:00 37° S 12:59:46 10° SE daylight
01 Aug - 14:35:28 10° WSW 14:41:17 23° SSW 14:46:32 10° SSE daylight
02 Aug - 08:58:23 10° SSW 09:04:25 25° SSE 09:10:47 10° ESE daylight
02 Aug - 10:45:37 10° WSW 10:52:55 38° S 11:00:14 10° ESE daylight
02 Aug - 12:34:17 10° WSW 12:41:36 36° S 12:48:28 10° SE daylight
02 Aug - 14:24:13 10° WSW 14:29:54 21° SSW 14:35:06 10° SSE daylight
03 Aug - 07:03:55 10° SSE 07:05:07 10° SE 07:06:21 10° SE daylight
03 Aug - 08:46:55 10° SSW 08:53:00 27° SSE 08:59:31 10° ESE daylight
03 Aug - 10:34:15 10° WSW 10:41:31 38° S 10:48:54 10° ESE daylight
03 Aug - 12:22:56 10° WSW 12:30:12 35° S 12:37:09 10° SE daylight
03 Aug - 14:13:01 10° WSW 14:18:29 20° SSW 14:23:35 10° SSE daylight
04 Aug - 06:51:24 10° SSE 06:53:43 12° SSE 06:56:08 10° SE daylight
04 Aug - 08:35:30 10° SW 08:41:35 28° SSE 08:48:14 10° ESE daylight
04 Aug - 10:22:56 10° WSW 10:30:06 39° S 10:37:33 10° ESE daylight
04 Aug - 12:11:39 10° WSW 12:18:47 34° SSW 12:25:45 10° SE daylight
04 Aug - 14:01:53 10° WSW 14:07:04 18° SSW 14:11:58 10° SSE daylight
05 Aug - 06:39:26 10° S 06:42:19 13° SSE 06:45:23 10° ESE daylight
05 Aug - 08:24:10 10° SW 08:30:11 29° SSE 08:36:53 10° ESE daylight
05 Aug - 10:11:40 10° WSW 10:18:42 39° S 10:26:10 10° ESE daylight
05 Aug - 12:00:23 10° WSW 12:07:22 32° SSW 12:14:18 10° SE daylight
05 Aug - 13:50:51 10° WSW 13:55:37 17° SSW 14:00:13 10° S daylight
06 Aug - 06:27:44 10° S 06:30:57 14° SSE 06:34:25 10° ESE daylight
06 Aug - 08:12:52 10° SW 08:18:49 30° SSE 08:25:31 10° ESE daylight
06 Aug - 10:00:26 10° WSW 10:07:18 38° S 10:14:44 10° ESE daylight
06 Aug - 11:49:10 10° WSW 11:55:57 30° SSW 12:02:48 10° SE daylight
06 Aug - 13:39:58 10° WSW 13:44:11 15° SSW 13:48:19 10° S daylight
07 Aug - 06:16:10 10° S 06:19:35 15° SSE 06:23:20 10° ESE daylight
07 Aug - 08:01:39 10° SW 08:07:27 31° SSE 08:14:06 10° ESE daylight
07 Aug - 09:49:14 10° WSW 09:55:56 37° S 10:03:17 10° ESE daylight
07 Aug - 11:38:00 10° WSW 11:44:32 28° SSW 11:51:13 10° SE daylight
07 Aug - 13:29:17 10° SW 13:32:45 13° SSW 13:36:11 10° S daylight
08 Aug - 06:04:44 10° S 06:08:15 16° SSE 06:12:11 10° ESE daylight
08 Aug - 07:50:28 10° SW 07:56:07 32° SSE 08:02:41 10° ESE daylight
08 Aug - 09:38:06 10° WSW 09:44:33 36° S 09:51:47 10° ESE daylight
08 Aug - 11:26:54 10° WSW 11:33:06 26° SSW 11:39:35 10° SE daylight
08 Aug - 13:19:01 10° SW 13:21:18 11° SSW 13:23:36 10° SSW daylight
09 Aug - 05:53:22 10° SSW 05:56:56 17° SSE 06:00:58 10° ESE daylight
09 Aug - 07:39:20 10° SW 07:44:47 32° S 07:51:14 10° ESE daylight
09 Aug - 09:27:00 10° WSW 09:33:13 34° S 09:40:15 10° SE daylight
09 Aug - 11:15:52 10° WSW 11:21:42 24° SSW 11:27:52 10° SSE daylight
